| time (UTC) | temp F | wind direction | speed MPH | gust MPH | rain 1hr in | rain 24hr in | rain mn in | humidity % | barometer mb |
| 20260504081518 | 67 | 277 | 3.0 | 7.0 | 0.00 | 0.03 | 0.00 | 63 | 1017.7 |
| 20260504050012 | 68 | 218 | 6.0 | 11.0 | 0.00 | 0.03 | 0.00 | 58 | 1019.3 |
| 20260504044512 | 68 | 212 | 5.0 | 11.0 | 0.00 | 0.03 | 0.03 | 61 | 1019.4 |
| 20260504043011 | 68 | 200 | 9.0 | 14.0 | 0.00 | 0.03 | 0.03 | 59 | 1019.5 |
| 20260504041509 | 68 | 196 | 8.0 | 11.0 | 0.00 | 0.03 | 0.03 | 60 | 1019.6 |
| 20260504040012 | 68 | 220 | 8.0 | 13.0 | 0.00 | 0.03 | 0.03 | 60 | 1019.4 |
| 20260504034511 | 69 | 196 | 10.0 | 16.0 | 0.00 | 0.03 | 0.03 | 58 | 1019.4 |
| 20260504033013 | 69 | 212 | 6.0 | 12.0 | 0.00 | 0.03 | 0.03 | 53 | 1019.4 |
| 20260504031514 | 69 | 200 | 7.0 | 12.0 | 0.00 | 0.03 | 0.03 | 51 | 1019.5 |
| 20260504030015 | 69 | 207 | 7.0 | 12.0 | 0.00 | 0.03 | 0.03 | 55 | 1019.4 |
| 20260504024512 | 69 | 207 | 7.0 | 10.0 | 0.00 | 0.03 | 0.03 | 57 | 1019.1 |
| 20260504023014 | 70 | 201 | 6.0 | 8.0 | 0.00 | 0.03 | 0.03 | 59 | 1019.2 |
| 20260504021513 | 70 | 221 | 2.0 | 6.0 | 0.00 | 0.03 | 0.03 | 54 | 1018.9 |
| 20260504020017 | 71 | 221 | 2.0 | 4.0 | 0.00 | 0.03 | 0.03 | 54 | 1018.8 |
| 20260504014514 | 71 | 219 | 3.0 | 7.0 | 0.00 | 0.03 | 0.03 | 50 | 1018.7 |
| 20260504013014 | 71 | 216 | 3.0 | 6.0 | 0.00 | 0.03 | 0.03 | 54 | 1018.7 |
| 20260504011514 | 71 | 226 | 2.0 | 4.0 | 0.00 | 0.03 | 0.03 | 51 | 1018.5 |
| 20260504010013 | 71 | 229 | 2.0 | 5.0 | 0.00 | 0.03 | 0.03 | 51 | 1018.6 |
| 20260504004532 | 71 | 222 | 3.0 | 6.0 | 0.00 | 0.03 | 0.03 | 50 | 1018.4 |
| 20260504003011 | 72 | 253 | 3.0 | 6.0 | 0.00 | 0.03 | 0.03 | 48 | 1018.2 |
| 20260504001528 | 73 | 272 | 4.0 | 10.0 | 0.00 | 0.03 | 0.03 | 45 | 1018.2 |
| 20260504000016 | 73 | 234 | 4.0 | 7.0 | 0.00 | 0.03 | 0.03 | 46 | 1018.2 |
| 20260503234519 | 73 | 204 | 4.0 | 9.0 | 0.00 | 0.03 | 0.03 | 45 | 1018.3 |
| 20260503233015 | 73 | 254 | 4.0 | 10.0 | 0.00 | 0.03 | 0.03 | 45 | 1018.5 |
| 20260503231514 | 73 | 249 | 5.0 | 11.0 | 0.00 | 0.04 | 0.03 | 42 | 1018.5 |
| 20260503230017 | 74 | 238 | 7.0 | 11.0 | 0.00 | 0.04 | 0.03 | 43 | 1018.5 |
| 20260503224514 | 74 | 225 | 6.0 | 11.0 | 0.00 | 0.04 | 0.03 | 40 | 1018.6 |
| 20260503223015 | 73 | 233 | 4.0 | 12.0 | 0.00 | 0.04 | 0.03 | 41 | 1018.6 |
| 20260503221517 | 73 | 269 | 7.0 | 12.0 | 0.00 | 0.04 | 0.03 | 40 | 1018.6 |
| 20260503220027 | 73 | 233 | 9.0 | 11.0 | 0.00 | 0.04 | 0.03 | 42 | 1018.8 |
| 20260503214529 | 73 | 257 | 6.0 | 10.0 | 0.00 | 0.04 | 0.03 | 41 | 1019.2 |
| 20260503213029 | 73 | 194 | 5.0 | 12.0 | 0.00 | 0.04 | 0.03 | 40 | 1019.2 |
| 20260503211519 | 73 | 216 | 5.0 | 12.0 | 0.00 | 0.04 | 0.03 | 43 | 1019.4 |
| 20260503210015 | 73 | 204 | 8.0 | 12.0 | 0.00 | 0.04 | 0.03 | 41 | 1019.6 |
| 20260503204525 | 73 | 182 | 7.0 | 10.0 | 0.00 | 0.04 | 0.03 | 40 | 1019.9 |
| 20260503203019 | 73 | 218 | 9.0 | 12.0 | 0.00 | 0.04 | 0.03 | 40 | 1020.1 |
| 20260503201522 | 73 | 203 | 9.0 | 13.0 | 0.00 | 0.04 | 0.03 | 42 | 1020.2 |
| 20260503200020 | 72 | 195 | 8.0 | 12.0 | 0.00 | 0.04 | 0.03 | 41 | 1020.4 |
| 20260503194513 | 73 | 205 | 6.0 | 12.0 | 0.00 | 0.04 | 0.03 | 40 | 1020.5 |
| 20260503193018 | 74 | 196 | 7.0 | 11.0 | 0.00 | 0.05 | 0.03 | 38 | 1020.7 |
| 20260503191520 | 74 | 201 | 6.0 | 10.0 | 0.00 | 0.05 | 0.03 | 40 | 1021.1 |
| 20260503190026 | 74 | 214 | 5.0 | 12.0 | 0.00 | 0.05 | 0.03 | 41 | 1021.1 |
| 20260503184524 | 73 | 203 | 6.0 | 10.0 | 0.00 | 0.05 | 0.03 | 38 | 1021.4 |
| 20260503183014 | 74 | 247 | 3.0 | 9.0 | 0.00 | 0.05 | 0.03 | 35 | 1021.3 |
| 20260503181538 | 74 | 114 | 7.0 | 10.0 | 0.00 | 0.05 | 0.03 | 34 | 1021.3 |
| 20260503180037 | 76 | 115 | 4.0 | 13.0 | 0.00 | 0.05 | 0.03 | 37 | 1021.6 |
| 20260503174524 | 73 | 95 | 4.0 | 10.0 | 0.00 | 0.05 | 0.03 | 35 | 1022.0 |
| 20260503173022 | 73 | 101 | 4.0 | 10.0 | 0.00 | 0.05 | 0.03 | 35 | 1022.2 |
| 20260503171523 | 73 | 202 | 1.0 | 6.0 | 0.00 | 0.05 | 0.03 | 34 | 1022.6 |